Location: Brunembert
(50.7122°N, 1.8935°E)
Time: 04:00:35
(UTC+00:00)

USA 186 - Pass Details

Date: 22 April 2021
Orbit: 261 x 463 km, 96.9° (Epoch: 06 May)

Event Time Altitude Azimuth Distance (km) Brightness Sun altitude
Rises 19:48:56 0° 185° (S) 2,402 5.3 -7.9°
Reaches altitude 10° 19:51:08 10° 195° (SSW) 1,509 4.4 -8.2°
Maximum altitude 19:54:06 34° 262° (W) 699 3.4 -8.6°
Drops below altitude 10° 19:56:55 10° 329° (NNW) 1,423 5.6 -9.0°
Sets 19:58:56 0° 340° (NNW) 2,242 6.4 -9.2°
